COSMOS 1275 DEB, 42095

Orbit data source: Space-Track

COSMOS 1275 DEB, 42095 is space debris in LEO originally from a launch on Thu, 04 Jun 1981 UTC launched from the Plesetsk Missile And Space Complex (PKMTR). Debris objects in space refer to the collection of defunct objects orbiting the Earth. Examples of debris include non-operational satellites, rocket bodies, and fragments generated from explosions, collisions, or faulty payload assembly.

Loading next visibility...
Identifier
42095, 1981-053PF
Orbit
LEO
Country
Flag of CISCIS
Related business
Manufacturer
Unknown
Mission
Spacecraft
Bus & Motor
Unknown
Mass
Unknown
Launch date (UTC)
1981-06-04 (44 years ago)
Launch vehicle
Unknown
Launch site
Plesetsk Missile And Space Complex (PKMTR)
Object type
Payload
Rocket body
Debris
Shape & HBR
Unknown shape, 0.1 m
Radar Cross Section
Small (<0.1 m²)

Expand to show TLE details & history
Last TLE update: 6 days ago

TLE from 6 days ago
0 COSMOS 1275 DEB
1 42095U 81053PF  25301.39555457  .00001847  00000-0  17090-2 0  9990
2 42095  82.7532 356.5709 0132990 137.8475 223.3004 13.78012327597664
Epoch: 2025-10-28T09:29Z
TLE epoch observation values (Epoch: 2025-10-28T09:29:35.914Z)
Latitude
-0°
Longitude
177.1876°
Altitude
1,045.591 km
Speed
7.293 km/s
True Right ascension
23h 46m 17s
True Declination
0° 00' 00"
Sunlit
Object was in full shadow at epoch
Visualization orbit readout
Latitude
Unknown
Longitude
Unknown
Altitude
Unknown
Speed
Unknown
Apparent Right ascension
Unknown
Apparent Declination
Unknown
Sunlit
N/A
Visualization observer readout
Local Sidereal Time
05:07:25
Azimuth
Unknown
Elevation
Unknown
Doppler factor
Unknown
Orbital elements
Apogee altitude
1,065.794 km
Perigee altitude
870.399 km
Semi-major axis
7,346.233 km
Eccentricity
0.0133
Inclination
82.7532°
RAAN
356.5709°
Arg. of periapsis
137.8475°
True anomaly
222.26779°
Mean anomaly
223.3004°
Eccentric anomaly
222.78285°
Mean motion
3.44704 °/min
Orbital period
104.44 mins
BSTAR
0.001709
Loading maneuver chart data...
Computing Atmospheric mass density...

Documentation

Showing up to 5 results
|